Home   Weather   Milwaukee   Past weeks

Flag for USA Past Weather in Milwaukee, Wisconsin, USA — Yesterday and Last 2 Weeks

Now
70 °F

Light rain. Broken clouds.


Feels Like: 70 °F
Forecast: 61 / 76 °F
Wind: 5 mph from South

Location: Milwaukee / Timmerman

Current Time: Sep 25, 2016 at 5:41:43 PM

Latest Report: Sep 25, 2016 at 4:45 PM


Visibility: 10 mi

Pressure: 29.90 "Hg

Humidity: 83%

Dew Point: 64 °F

Location of MilwaukeeLocation

Past Weather in Milwaukee — Graph

°F

Milwaukee Temperature Yesterday

Maximum temperature yesterday: 66 °F (at 12:45 PM)
Minimum temperature yesterday: 61 °F (at 6:15 AM)
Average temperature yesterday: 64 °F

High & Low Weather Summary for the Past Weeks

 TemperatureHumidityPressure
High84 °F (Sep 16, 3:45 PM)94% (Sep 11, 4:15 AM)30.30 "Hg (Sep 11, 4:15 AM)
Low50 °F (Sep 11, 6:35 AM)28% (Sep 19, 12:45 PM)29.85 "Hg (Sep 17, 2:45 PM)
Average65 °F74%30.09 "Hg
* Reported Sep 10 3:45 PM — Sep 25 3:45 PM, Milwaukee, Weather by CustomWeather, © 2016

Note: Actual official high and low records may vary slightly from our data, if they occured in-between our weather recording intervals... More about our weather records

Advertising

Milwaukee Weather History for the Previous 24 Hours

Scroll right to see more
 ConditionsComfort  
Time TempWeatherWind HumidityBarometerVisibility
3:45 PM
Sun, Sep 25
73 °FSunny.8 mph65%29.88 "Hg10 mi
2:45 PM77 °FScattered clouds.7 mph57%29.92 "Hg10 mi
1:45 PM77 °FScattered clouds.9 mph57%29.98 "Hg10 mi
12:45 PM75 °FSunny.10 mph61%30.00 "Hg10 mi
11:45 AM73 °FSunny.8 mph61%30.03 "Hg10 mi
10:45 AM72 °FSunny.7 mph69%30.05 "Hg10 mi
9:45 AM70 °FPartly sunny.13 mph69%30.07 "Hg10 mi
8:45 AM68 °FScattered clouds.8 mph78%30.08 "Hg10 mi
7:45 AM66 °FScattered clouds.6 mph83%30.09 "Hg10 mi
6:35 AM64 °FClear.6 mph83%30.08 "Hg10 mi
6:15 AM64 °FPassing clouds.7 mph83%30.09 "Hg10 mi
5:55 AM64 °FPassing clouds.6 mph83%30.09 "Hg10 mi
5:35 AM64 °FPartly cloudy.5 mph83%30.10 "Hg10 mi
5:15 AM64 °FPassing clouds.6 mph83%30.10 "Hg10 mi
4:55 AM64 °FClear.3 mph83%30.10 "Hg10 mi
4:35 AM63 °FPassing clouds.5 mph88%30.10 "Hg10 mi
4:15 AM63 °FPassing clouds.5 mph88%30.11 "Hg10 mi
3:55 AM63 °FPassing clouds.3 mph88%30.11 "Hg10 mi
3:35 AM64 °FClear.No wind83%30.12 "Hg10 mi
3:15 AM64 °FClear.No wind78%30.12 "Hg10 mi
2:55 AM64 °FClear.5 mph78%30.12 "Hg10 mi
2:15 AM64 °FClear.No wind78%30.14 "Hg10 mi
1:55 AM64 °FClear.5 mph78%30.14 "Hg10 mi
1:10 AM64 °FClear.3 mph78%30.14 "Hg10 mi
12:55 AM64 °FClear.No wind78%30.15 "Hg10 mi
12:15 AM64 °FClear.No wind78%30.15 "Hg10 mi
11:55 PM
Sat, Sep 24
64 °FClear.No wind73%30.15 "Hg10 mi
11:15 PM64 °FClear.3 mph73%30.16 "Hg10 mi
10:55 PM64 °FPassing clouds.3 mph73%30.16 "Hg10 mi
10:35 PM64 °FPassing clouds.3 mph73%30.17 "Hg10 mi
10:15 PM64 °FOvercast.3 mph73%30.17 "Hg10 mi
9:55 PM64 °FOvercast.3 mph73%30.18 "Hg10 mi
9:35 PM64 °FOvercast.5 mph73%30.18 "Hg10 mi
9:15 PM64 °FOvercast.3 mph73%30.18 "Hg10 mi
8:45 PM64 °FOvercast.No wind73%30.18 "Hg10 mi
7:45 PM64 °FOvercast.3 mph73%30.17 "Hg10 mi
5:45 PM64 °FMostly cloudy.7 mph73%30.17 "Hg10 mi
Weather by CustomWeather, © 2016

See weather overviewHow to use our weather pages